Content
SEND FEEDBACK

Daily
Averages
Monthly
Summary
United States of America

MIDLAND, MICHIGAN


Home > North America > United States > Michigan
Elevation: 628 feet     Latitude: 43 39N     Longitude: 084 15W

WEATHER
 
SELECT A DAY
Number of Records: 106,276;   Date Range: 1/13/10 - 7/24/14
 
SHARE

PRINT THIS DATA

[ ← Previous Day ]
WEATHER ALMANAC - MARCH 14, 2013
[ Next Day → ]
[ °C ]   °F
Weather ElementAverageHighLow
Temperature30.5 °F39.7 °F (4:54 pm)20.1 °F (7:54 am)
Dewpoint18 °F21.7 °F (9:54 pm)14 °F (12:34 am)
Humidity61.7 %87 % (7:54 am)40 % (5:34 pm)
Barometer30.16 in30.23 in (9:34 am)30.02 in (11:54 pm)
Wind Speed6.1 mph11.5 mph (12:14 pm)
Wind Gust17.3 mph (2:14 pm)
Weather ElementAverage
Visibility10 mi
Wind DirectionWSW (244.6 °)

Weather ElementTotal
Precipitation---
Heating Degree Days35.1 (Base 65)
Averaged from 71 records on March 14, 2013
WEATHER CONDITIONS BREAKOUT
WIND DIRECTION BREAKOUT
WEATHER BY HOUR - MARCH 14, 2013
[ °C ]   °F
Local TimeTemperatureDewpointHumidityBarometerVisibilityWind DirectionWind SpeedGust SpeedPrecipitationEventsConditions
12:34 AM27.0 °F14.0 °F58 %30.17 in10.0 miWNW (290°)6.9 mphClear
12:54 AM26.6 °F14.2 °F60 %30.17 in10.0 miWNW (290°)6.9 mphClear
1:13 AM26.6 °F14.5 °F60 %30.18 in10.0 miWNW (300°)8.1 mphClear
1:34 AM25.7 °F14.9 °F64 %30.19 in10.0 miWNW (300°)8.1 mphClear
1:54 AM25.7 °F15.6 °F66 %30.19 in10.0 miNW (310°)6.9 mphClear
2:13 AM25.3 °F16.2 °F68 %30.20 in10.0 miWNW (290°)4.6 mphClear
2:34 AM24.8 °F16.0 °F69 %30.20 in10.0 miWest (280°)4.6 mphClear
2:54 AM24.8 °F16.5 °F71 %30.20 in10.0 miWest (270°)4.6 mphClear
3:13 AM24.1 °F16.3 °F72 %30.20 in10.0 miWest (260°)4.6 mphClear
3:34 AM23.5 °F16.3 °F74 %30.20 in10.0 miWest (270°)4.6 mphClear
3:54 AM23.0 °F16.2 °F75 %30.19 in10.0 miWest (270°)3.5 mphClear
4:13 AM23.0 °F16.3 °F76 %30.19 in10.0 miWest (270°)3.5 mphClear
4:34 AM22.1 °F16.2 °F78 %30.19 in10.0 miWest (260°)3.5 mphClear
4:53 AM21.9 °F16.3 °F79 %30.20 in10.0 miWest (260°)3.5 mphClear
5:14 AM21.6 °F16.2 °F80 %30.20 in10.0 miWest (260°)3.5 mphClear
5:34 AM21.6 °F16.2 °F80 %30.19 in10.0 miWest (260°)3.5 mphClear
5:53 AM21.2 °F15.8 °F80 %30.20 in10.0 miWest (270°)3.5 mphClear
6:14 AM21.2 °F16.0 °F80 %30.20 in10.0 miWest (270°)3.5 mphClear
6:33 AM21.2 °F16.3 °F82 %30.20 in10.0 miCalmScattered Clouds
6:54 AM21.2 °F16.5 °F82 %30.20 in10.0 miWest (270°)3.5 mphClear
7:14 AM20.8 °F16.3 °F83 %30.20 in10.0 miCalmClear
7:33 AM20.3 °F16.3 °F85 %30.21 in10.0 miCalmClear
7:54 AM20.1 °F16.7 °F87 %30.21 in10.0 miCalmScattered Clouds
8:14 AM20.3 °F16.7 °F86 %30.22 in10.0 miCalmScattered Clouds
8:34 AM21.9 °F17.2 °F82 %30.22 in10.0 miWest (260°)4.6 mphClear
8:54 AM23.2 °F17.6 °F79 %30.22 in10.0 miWest (260°)4.6 mphClear
9:13 AM24.8 °F18.1 °F76 %30.22 in10.0 miWest (270°)4.6 mphClear
9:34 AM26.6 °F18.3 °F71 %30.23 in10.0 miWest (270°)6.9 mphClear
9:54 AM28.2 °F19.0 °F68 %30.23 in10.0 miWest (280°)4.6 mphClear
10:14 AM29.3 °F19.0 °F66 %30.23 in10.0 miWNW (300°)6.9 mphClear
10:34 AM30.6 °F19.2 °F63 %30.22 in10.0 miWNW (300°)9.2 mphClear
10:54 AM31.5 °F19.2 °F61 %30.22 in10.0 miWNW (290°)5.8 mph16.1 mphClear
11:14 AM32.2 °F19.6 °F60 %30.22 in10.0 miWNW (290°)9.2 mphClear
11:34 AM32.7 °F19.8 °F59 %30.22 in10.0 miWNW (290°)8.1 mphScattered Clouds
11:53 AM33.1 °F18.5 °F55 %30.21 in10.0 miNW (320°)10.4 mphScattered Clouds
12:14 PM33.8 °F19.6 °F56 %30.20 in10.0 miWest (260°)11.5 mphClear
12:34 PM34.9 °F19.2 °F53 %30.20 in10.0 miNW (310°)8.1 mphClear
12:54 PM35.4 °F18.9 °F51 %30.19 in10.0 miWSW (250°)6.9 mphClear
1:14 PM35.4 °F20.1 °F54 %30.19 in10.0 miWSW (240°)10.4 mphClear
1:33 PM35.4 °F19.4 °F52 %30.18 in10.0 miSW (220°)4.6 mphClear
1:54 PM36.7 °F19.6 °F50 %30.17 in10.0 miWSW (250°)6.9 mphClear
2:14 PM37.2 °F19.2 °F48 %30.17 in10.0 miWSW (250°)6.9 mph17.3 mphClear
2:34 PM37.0 °F18.5 °F47 %30.16 in10.0 miWNW (290°)3.5 mphClear
2:54 PM37.4 °F18.7 °F47 %30.15 in10.0 miNW (310°)8.1 mph16.1 mphClear
3:13 PM38.5 °F18.1 °F44 %30.14 in10.0 miWSW (240°)8.1 mphClear
3:34 PM38.7 °F17.6 °F43 %30.14 in10.0 miNW (310°)6.9 mphClear
3:54 PM39.4 °F17.6 °F41 %30.14 in10.0 miWSW (250°)9.2 mphClear
4:14 PM38.7 °F17.1 °F42 %30.14 in10.0 miWest (260°)5.8 mphClear
4:34 PM39.4 °F18.0 °F42 %30.14 in10.0 miWest (260°)9.2 mphClear
4:54 PM39.7 °F17.4 °F41 %30.13 in10.0 miWSW (250°)9.2 mphClear
5:14 PM39.4 °F17.6 °F41 %30.12 in10.0 miWest (270°)9.2 mphClear
5:34 PM39.7 °F17.2 °F40 %30.11 in10.0 miWSW (250°)11.5 mph17.3 mphClear
5:54 PM39.4 °F16.9 °F40 %30.11 in10.0 miWSW (250°)6.9 mphClear
6:14 PM39.2 °F17.6 °F42 %30.09 in10.0 miWest (260°)9.2 mphClear
6:25 PM39.2 °F17.6 °F42 %30.09 in10.0 miWSW (250°)6.9 mphClear
6:54 PM38.7 °F18.3 °F44 %30.10 in10.0 miWSW (250°)8.1 mphClear
7:14 PM38.3 °F19.9 °F48 %30.10 in10.0 miWSW (240°)8.1 mphClear
7:34 PM36.5 °F19.9 °F51 %30.09 in10.0 miSW (230°)5.8 mphClear
7:54 PM35.4 °F19.0 °F51 %30.08 in10.0 miSW (220°)3.5 mphClear
8:14 PM34.0 °F19.4 °F55 %30.08 in10.0 miSW (230°)3.5 mphClear
8:34 PM33.3 °F19.4 °F57 %30.08 in10.0 miSW (230°)3.5 mphClear
8:54 PM32.5 °F19.9 °F60 %30.07 in10.0 miSW (220°)4.6 mphClear
9:14 PM33.8 °F21.2 °F60 %30.06 in10.0 miSW (230°)8.1 mphClear
9:34 PM33.6 °F21.4 °F61 %30.06 in10.0 miWSW (240°)6.9 mphClear
9:54 PM33.3 °F21.7 °F63 %30.05 in10.0 miWSW (250°)6.9 mphClear
10:14 PM33.1 °F21.6 °F63 %30.04 in10.0 miWSW (240°)6.9 mphClear
10:34 PM32.4 °F21.6 °F64 %30.05 in10.0 miWSW (240°)8.1 mphClear
10:54 PM32.0 °F21.4 °F65 %30.04 in10.0 miSW (230°)8.1 mphClear
11:14 PM32.0 °F20.8 °F63 %30.03 in10.0 miWSW (240°)8.1 mphClear
11:34 PM31.8 °F20.8 °F64 %30.03 in10.0 miSW (230°)8.1 mphClear
11:54 PM31.8 °F20.5 °F63 %30.02 in10.0 miWSW (240°)10.4 mphClear
Hourly data recorded from KIKW, located miles away from Midland, Michigan







STORIES FROM OUR PARTNERS